Lid_Strength_Index
5 5 5 5 5 5 5 5 5 5 5 5 5 4 3 4 6 10 13 9 7 4 4 7 8 9 8 9 8 6 11 13 12 12 11 9 11 9 9 9 9 8 8 8 8
6 6 5 5 5 6 5 5 5 6 6 6 5 4 4 4 10 13 9 6 6 5 8 9 10 10 10 10 10 10 13 13 11 11 12 12 12 11 11 10 10 9 8 7 8
6 6 6 6 6 5 4 5 5 5 6 6 5 5 4 4 12 14 8 7 6 7 8 8 10 10 11 10 11 12 13 12 12 12 12 13 12 11 12 13 12 12 11 10 9
5 5 5 5 4 3 2 2 3 4 4 4 5 5 5 9 15 14 9 8 7 9 8 8 10 11 12 12 12 13 13 13 12 12 13 14 13 13 13 15 13 12 12 11 11
6 6 5 4 3 2 2 3 3 4 4 4 3 4 10 14 16 12 9 10 11 10 10 9 10 11 12 12 12 13 13 12 12 12 14 13 13 13 15 14 14 13 13 13 12
6 6 5 4 3 2 2 3 3 3 3 3 3 8 11 15 11 11 11 11 10 10 9 9 10 9 11 12 12 13 12 12 12 14 14 16 14 12 13 14 14 14 13 13 13
5 5 5 4 3 3 2 2 2 4 2 5 7 11 13 15 11 11 11 11 10 10 10 10 9 10 11 12 13 13 14 13 14 15 17 15 14 16 13 13 13 14 14 14 13
5 6 5 5 4 4 4 4 5 5 5 6 8 10 15 11 10 11 10 10 10 9 9 10 10 13 14 14 14 16 14 16 15 16 16 15 17 15 13 13 13 13 14 14 14
5 6 5 5 4 4 4 6 6 6 7 8 10 11 15 11 13 11 11 12 10 10 11 11 12 14 14 14 15 16 17 19 18 17 17 17 18 14 13 13 14 13 13 13 13
5 6 5 5 4 4 4 5 6 8 9 10 11 12 13 15 13 12 10 11 11 12 12 13 14 15 16 15 18 19 20 20 20 18 17 18 18 15 14 14 14 14 13 13 13
5 6 6 6 5 5 6 7 10 11 12 15 15 15 15 13 12 13 12 12 12 13 16 16 17 19 18 18 19 20 20 20 19 18 18 19 18 16 15 14 15 14 14 14 13
5 6 6 6 6 6 7 11 12 11 16 14 14 14 13 13 15 13 11 14 14 17 16 16 20 18 17 18 19 19 20 20 18 18 18 18 18 15 15 15 15 15 14 14 14
5 6 6 7 7 8 10 11 9 10 14 16 15 15 15 13 16 16 13 15 16 17 17 18 19 17 18 18 19 19 20 20 21 18 17 18 17 16 14 13 13 13 13 13 14
5 6 7 7 8 10 11 10 8 9 12 17 16 15 14 14 17 13 13 15 17 19 18 18 17 18 19 19 19 20 18 19 19 19 18 17 18 17 15 14 14 14 13 13 13
5 6 8 8 10 10 10 9 8 9 15 17 16 12 13 15 16 15 12 14 18 18 17 20 19 19 20 20 18 19 18 19 19 19 20 19 20 16 15 16 15 14 14 13 13
5 7 9 10 10 11 10 9 9 12 17 19 17 17 16 16 16 15 15 14 15 17 17 18 16 18 19 18 18 17 19 18 18 18 21 20 20 17 17 18 16 14 14 13 13
6 7 10 11 12 10 8 10 12 15 19 19 19 17 18 18 17 17 18 19 18 19 20 19 19 18 17 19 18 17 20 19 20 20 20 19 21 17 16 15 17 15 14 13 13
7 9 10 12 11 10 10 11 16 22 20 18 18 18 19 19 19 18 19 19 18 20 20 20 20 20 18 19 22 20 20 19 22 22 21 20 22 16 14 14 15 14 14 13 13
8 11 11 11 10 10 11 14 15 19 18 18 19 20 22 20 19 19 20 20 20 20 20 21 22 19 18 17 19 23 21 21 23 24 25 20 18 16 15 15 15 15 14 14 13
10 11 12 11 10 10 11 16 20 17 17 18 18 20 19 21 20 20 20 20 19 18 20 21 21 20 18 17 18 19 18 22 22 25 24 21 22 19 17 16 15 15 14 14 13
11 11 11 11 10 12 13 19 20 16 16 18 19 21 20 21 21 21 20 20 18 18 18 20 21 21 20 21 20 21 21 22 21 22 23 25 20 15 15 15 16 15 14 13 13
11 10 11 11 12 20 18 20 16 17 15 17 17 18 19 20 21 21 20 20 17 17 20 19 21 22 22 20 19 20 20 20 21 24 23 23 23 15 15 15 15 15 14 13 12
12 12 11 12 13 18 20 18 16 17 17 17 18 17 18 20 20 20 20 17 17 17 19 19 21 22 23 22 21 22 20 19 21 21 24 24 20 16 16 15 15 15 14 13 13
13 12 13 15 17 17 19 19 19 16 17 17 18 17 19 20 19 22 20 18 16 16 16 17 22 22 19 21 21 23 21 20 21 23 22 23 19 16 15 16 15 14 14 13 13
15 18 20 15 17 19 18 18 19 19 18 16 19 19 20 23 22 21 19 19 17 16 16 18 23 24 22 21 21 22 22 21 22 21 23 19 19 16 15 15 15 14 14 14 13
14 15 20 21 21 19 19 19 18 18 18 19 20 18 19 21 18 21 19 19 19 19 18 21 22 27 27 22 22 24 22 21 21 20 20 20 20 15 15 14 15 14 14 14 13
15 15 14 20 20 18 17 18 18 17 17 17 17 18 19 18 17 17 16 16 17 19 19 21 22 25 25 25 24 26 24 21 20 20 20 22 18 15 16 15 15 14 14 14 13